Starlink 1992

operational
NORAD ID: 47632 Int'l Des: 2021-012 Owner: SPXS Country: US Constellation: starlink
LEOCIRCULARSTARLINK_TYPE

Über Starlink 1992

Beschreibung wird geladen...

Live-Position

3D-Globus wird geladen...

Nächste Überflüge

Höhenverlauf

Altitude vs Time

uPlot chart will show altitude changes over time

Zweizeiliger Elementsatz

1 47632U 21012N 26033.57762173 .00101048 00000-0 66224-2 0 9996
2 47632 53.0555 134.2431 0001376 99.5537 260.5608 15.06865654276008
Epoch: 2. Feb. 2026 • Age: 10 hours

Aktueller Status

Höhe 550.4 km
Geschwindigkeit 7.59 km/s
Subsatellitenpunkt 49.81°N, 118.54°E
Startdatum 16. Feb. 2021
Alter 4.9 years
Typ internet

Technische Details

Klassifizierung Payload
Masse 260.00 kg
Trockenmasse 248.00 kg
Gesamtmasse 260.00 kg
Länge 0.20 m
Durchmesser 2.80 m
Spannweite 9.00 m
Form Box + pan
Hersteller SPXS
Bus-Typ Starlink
Phasenstatus In Orbit
Besitzer/Staat SPXS/US

Große Konstellationen

Loading constellations...